Temperature
22 21 21 21 21 22 23 24 25 25 25 25 25 25 24 23 22 20 19 19 19 18 18 19 18 18 18 18 18 18 18 18 18 18 18 18 18 18 18 18 17 17 17 17 17 17 18 18 18
22 21 21 22 22 23 23 24 24 25 25 25 25 25 24 22 21 19 19 19 19 18 18 18 18 18 18 18 18 18 18 18 18 18 17 18 18 17 17 17 17 17 17 17 17 17 17 18 18
22 22 22 23 23 23 23 24 25 25 25 25 25 24 23 22 21 19 19 19 19 18 18 18 18 18 18 18 18 18 18 17 17 17 17 17 17 17 17 17 17 17 17 17 17 17 17 17 17
22 22 24 24 24 25 25 25 25 25 25 25 25 24 22 21 20 19 19 19 19 18 18 18 18 18 18 18 18 18 18 17 17 17 17 17 17 17 17 17 17 17 17 17 17 17 17 17 17
23 23 24 24 25 25 26 26 26 25 25 25 24 23 21 20 20 19 19 19 19 18 18 18 18 18 18 18 18 18 17 17 17 17 17 17 17 17 17 17 17 17 17 17 17 17 17 17 17
23 24 24 24 24 25 26 26 26 26 25 25 24 23 20 20 19 19 19 19 19 18 18 18 18 18 18 18 18 17 17 17 18 18 17 17 17 17 17 17 17 17 17 17 17 17 17 17 17
24 24 24 24 24 24 26 26 26 25 25 25 24 23 20 20 19 19 19 19 19 18 18 18 18 18 18 18 18 18 17 17 17 17 17 17 17 17 17 17 17 17 17 17 17 17 17 17 17
24 24 24 24 24 24 26 26 25 25 25 24 24 23 21 20 19 19 19 19 19 19 18 18 18 18 18 18 18 18 18 17 17 17 17 17 17 17 17 17 17 17 17 17 17 17 17 17 17
24 24 24 24 24 25 26 26 25 25 24 24 23 22 21 20 19 19 19 19 19 19 18 18 18 18 18 18 18 18 18 17 17 17 17 17 17 17 17 17 17 17 17 17 17 17 16 16 16
25 23 25 25 26 25 26 26 25 25 25 24 23 21 21 20 20 20 20 19 19 19 18 18 18 18 18 18 18 17 17 17 17 17 17 17 17 17 16 17 17 17 16 16 16 16 16 16 16
26 25 25 26 26 26 26 25 25 25 24 24 23 21 21 21 20 20 20 20 19 19 19 19 18 18 18 18 18 17 17 17 17 17 17 17 17 17 17 17 16 16 16 16 16 16 16 16 16
26 26 26 26 25 25 25 25 25 25 24 23 23 22 21 21 21 21 20 20 20 19 19 19 19 18 18 18 18 18 17 17 17 17 17 17 17 17 17 16 16 16 16 16 16 16 16 16 16
26 25 26 25 25 25 25 25 25 24 24 23 22 22 22 21 21 21 21 20 20 19 19 19 18 18 18 18 18 18 17 17 17 17 17 17 17 17 17 16 16 16 16 16 16 16 16 16 16
26 26 25 25 25 25 25 25 24 24 23 23 23 22 22 21 21 21 21 20 20 19 19 19 18 18 18 18 18 18 17 17 17 17 17 17 17 17 17 16 16 16 16 16 16 16 16 16 16
25 25 25 25 25 25 25 24 24 24 24 23 23 22 22 22 21 21 21 20 20 19 19 19 18 18 18 18 18 18 17 17 17 17 17 17 17 17 17 16 16 16 16 16 16 16 16 15 15
26 25 24 25 26 25 24 23 24 24 23 23 23 22 22 22 21 21 21 20 20 19 19 19 18 18 18 18 18 18 17 17 17 17 17 17 17 17 17 16 16 16 16 16 15 15 15 15 15
25 25 25 25 26 26 25 23 24 24 23 23 23 22 22 22 21 21 20 20 20 19 19 18 18 18 18 18 18 17 17 17 17 17 17 17 17 17 16 16 16 16 16 15 15 15 15 15 15
25 25 25 25 26 26 24 24 24 24 23 23 22 22 22 22 21 21 20 20 19 19 19 18 18 18 18 17 17 17 17 17 17 17 17 16 16 16 16 16 16 16 15 15 15 15 15 15 15
25 25 25 26 26 25 25 24 24 24 23 23 22 22 22 22 21 21 20 20 19 19 18 18 18 18 17 17 17 17 17 16 16 16 16 16 16 16 16 16 16 15 15 15 15 15 15 15 15
26 25 25 26 26 25 25 24 24 24 23 23 23 22 22 22 21 20 20 19 19 19 18 18 18 17 17 17 17 17 16 16 16 16 16 16 16 16 16 16 16 15 15 15 15 15 15 15 15
26 25 25 25 25 26 25 24 24 24 24 23 23 23 22 21 21 20 20 19 19 18 18 18 18 17 17 17 17 16 16 16 16 16 16 16 16 16 16 16 15 15 15 15 15 15 15 15 14
25 26 25 25 24 24 25 23 24 24 23 23 23 23 22 21 20 20 19 19 18 18 18 18 17 17 17 17 16 16 16 16 16 16 16 16 16 16 16 16 15 15 15 15 15 15 14 14 14
25 26 25 25 24 24 25 24 24 24 23 23 23 22 22 21 20 20 19 19 18 18 18 18 17 17 17 17 16 16 16 16 16 16 16 16 16 16 15 15 15 15 15 15 15 15 14 14 14
26 26 25 25 24 23 25 24 23 24 23 23 23 22 21 21 20 20 19 19 18 18 18 17 17 17 17 16 16 16 16 16 16 16 15 15 15 15 15 15 15 15 15 15 15 14 14 14 14
25 24 23 23 23 24 26 25 23 24 24 24 23 22 21 21 20 19 19 18 18 18 17 17 17 17 17 16 16 16 16 16 15 15 15 15 15 15 15 15 15 15 15 15 15 14 14 14 14
25 24 22 22 23 24 25 24 23 24 24 23 23 22 21 21 20 19 18 18 18 17 17 17 17 17 16 16 16 16 16 15 15 15 15 15 15 15 15 15 15 15 15 15 15 14 14 14 14
24 24 25 23 24 23 24 24 23 24 23 23 22 22 21 20 19 19 18 18 17 17 17 17 17 16 16 16 16 16 16 15 15 15 15 15 15 15 15 15 15 15 14 14 14 14 14 14 14
25 24 24 23 22 22 23 23 22 22 23 22 22 21 21 20 19 18 18 17 17 17 17 17 16 16 16 16 16 16 16 15 15 15 15 15 15 15 15 15 15 14 14 14 14 14 14 14 14
24 24 24 23 23 22 22 22 24 23 23 22 22 21 20 19 19 18 17 17 17 17 16 16 16 16 16 16 16 16 15 15 15 15 15 15 15 14 14 14 14 14 14 14 14 14 14 14 14
24 24 24 22 22 22 22 22 24 23 23 22 22 21 20 19 19 18 17 17 17 16 16 16 16 16 16 16 15 15 15 15 15 15 15 14 14 14 14 14 14 14 14 14 14 14 13 13 13
Wind_Speed
10 10 6 2 2 1 4 6 7 7 7 8 9 9 12 12 8 7 3 5 8 10 12 11 11 10 10 10 10 9 9 9 9 9 9 10 10 10 10 10 10 10 10 10 10 10 10 10 10
10 7 4 3 2 1 4 6 8 9 7 5 8 10 12 11 10 8 4 5 8 11 12 12 11 11 10 9 9 8 8 8 9 9 9 10 10 10 10 10 10 10 10 10 9 10 10 10 9
10 8 4 2 1 3 4 6 7 7 6 6 7 10 8 7 8 6 5 6 9 12 13 12 11 11 10 9 9 8 8 8 8 9 9 9 9 9 9 10 10 10 10 10 9 9 10 9 9
6 4 3 1 3 6 7 7 6 6 6 6 7 9 8 8 6 7 7 8 10 11 13 12 11 11 10 9 9 8 8 8 8 9 9 9 9 9 9 9 9 9 9 9 9 9 9 8 8
4 3 2 0 4 8 8 6 5 6 6 8 9 10 9 9 9 9 7 7 9 10 12 12 11 10 10 9 9 8 8 8 8 9 9 9 9 9 8 8 9 9 9 9 9 9 9 8 8
3 3 2 1 5 7 6 5 5 6 7 8 8 10 7 8 8 7 6 6 8 9 11 12 10 10 9 9 9 8 8 8 8 8 8 8 8 8 8 8 9 9 9 9 9 9 8 8 7
3 3 2 2 4 5 4 4 4 6 6 6 5 8 7 9 7 6 5 5 7 8 9 10 10 10 9 9 9 8 8 8 8 7 7 7 7 8 8 8 9 9 9 8 8 8 7 6 5
3 3 1 1 3 4 4 3 4 5 6 6 5 6 7 9 8 6 5 5 6 6 5 7 9 10 10 9 8 8 8 7 7 6 6 6 6 7 7 8 8 8 7 6 6 6 5 5 4
3 2 1 2 3 4 4 3 4 4 6 7 8 9 11 11 9 7 5 5 5 6 4 4 5 7 8 9 9 8 8 7 6 6 6 5 5 7 7 9 8 7 6 5 4 3 3 2 1
2 1 2 4 4 4 3 3 2 3 5 7 9 11 11 10 8 7 6 6 6 5 5 4 4 5 5 5 8 7 7 8 7 6 6 4 4 6 8 9 8 6 5 3 2 2 1 1 0
1 0 3 4 5 3 2 2 1 2 3 5 8 11 10 8 7 6 5 6 5 5 4 4 4 4 4 3 4 3 4 4 3 4 5 4 5 5 7 6 6 5 4 2 1 1 1 2 3
1 2 3 3 4 1 1 2 2 4 4 6 8 9 9 7 6 5 5 6 5 5 4 3 3 3 4 4 3 3 3 2 2 2 4 4 2 2 2 3 4 3 3 1 1 1 3 5 6
1 1 2 2 2 0 1 2 2 3 5 6 8 8 7 6 6 5 6 6 6 5 4 4 2 2 3 3 2 3 3 3 4 3 3 4 2 2 2 2 2 3 3 2 2 3 4 4 5
1 2 2 2 2 2 1 2 2 3 4 5 6 7 7 5 5 5 5 5 6 5 5 4 3 3 3 3 2 2 3 3 3 2 3 4 3 2 2 2 2 2 3 3 3 4 4 3 3
3 4 4 4 4 3 1 2 4 4 5 4 5 6 6 6 5 4 5 4 4 4 5 4 3 3 2 2 2 3 3 4 2 2 2 3 3 3 3 3 2 2 3 4 4 4 3 3 3
7 5 4 5 5 4 3 3 3 5 5 3 3 4 5 5 4 4 5 5 5 5 6 4 3 3 3 3 2 2 3 3 2 3 3 4 4 4 4 3 2 3 4 3 2 3 3 3 3
6 5 3 4 5 4 4 2 3 4 4 4 3 4 5 6 5 4 5 4 4 4 5 5 3 3 3 3 2 3 3 3 3 4 4 4 4 5 5 2 2 4 3 3 3 3 3 3 3
3 2 2 2 4 3 4 3 4 5 4 3 3 3 4 5 5 5 6 5 4 3 4 6 4 3 4 3 3 3 3 3 3 3 2 2 2 3 4 2 4 4 3 3 2 3 3 2 2
4 3 4 0 3 2 3 3 4 6 5 4 4 5 4 4 4 6 6 6 5 4 4 5 4 4 4 2 2 2 2 2 2 1 2 2 1 2 3 2 3 3 3 2 2 3 3 2 2
5 4 4 1 1 2 3 3 4 5 6 5 4 4 4 4 4 6 6 5 4 4 4 4 4 3 5 3 3 3 2 2 2 1 2 2 2 2 3 3 3 3 3 2 3 3 2 0 1
6 4 3 4 3 5 5 4 5 5 5 5 4 4 5 5 4 5 5 5 4 4 3 3 3 4 5 4 3 3 2 1 2 1 1 1 2 3 3 4 3 3 3 2 2 3 2 0 1
5 3 4 5 5 4 5 3 5 7 6 6 4 4 5 5 5 5 5 5 4 4 3 3 3 4 4 4 3 3 3 2 1 1 1 0 1 2 2 3 3 3 3 3 3 3 2 2 0
4 6 7 8 7 7 7 5 4 6 5 5 5 4 4 5 6 5 5 5 5 4 4 3 3 4 4 4 3 2 2 1 1 2 1 1 1 1 2 2 2 2 2 2 2 2 1 1 1
6 8 9 8 6 7 7 5 3 4 4 4 5 5 4 5 5 5 5 5 5 5 4 3 3 3 3 3 3 2 3 2 2 2 1 1 1 1 1 2 2 2 2 2 2 2 2 0 0
6 5 3 4 5 4 3 2 3 5 5 5 4 4 5 5 4 4 6 5 5 5 4 3 3 3 3 3 3 3 4 3 2 2 2 1 1 1 1 2 2 1 2 3 2 2 2 1 1
5 5 4 4 4 4 3 2 5 7 7 6 5 5 4 5 5 4 5 5 5 5 4 3 2 2 3 3 3 3 3 2 2 2 2 1 1 2 2 2 2 2 2 2 2 1 1 1 1
5 5 5 6 9 7 2 4 5 6 6 6 5 5 4 4 5 5 4 5 5 5 4 4 3 2 2 3 3 3 3 3 2 2 2 1 1 1 2 2 2 2 2 2 2 1 1 1 1
7 7 5 4 4 5 3 2 4 6 6 5 5 4 4 4 4 4 3 2 4 4 4 4 4 3 3 2 2 2 3 3 2 1 1 2 2 1 2 2 2 3 2 2 1 1 1 1 1
6 6 4 4 5 4 4 2 4 5 5 4 3 3 4 3 3 3 2 2 2 3 3 3 3 3 2 2 2 2 2 2 2 2 2 2 2 2 2 3 3 3 3 3 2 2 2 2 1
5 6 5 5 5 5 5 1 4 6 5 4 3 3 3 3 2 3 3 2 2 3 3 3 3 2 2 2 2 2 1 2 2 2 2 1 2 2 2 2 3 3 4 3 3 3 2 2 2
Wind_Direction
283 262 251 260 263 241 66 66 66 56 56 48 47 60 66 55 54 89 120 92 99 104 105 96 90 87 84 81 78 75 73 76 78 79 78 80 79 75 72 69 70 70 71 73 74 71 70 70 69
284 286 278 240 262 70 72 73 72 60 61 64 59 62 70 67 76 97 105 94 99 98 96 93 92 90 88 87 84 80 79 81 83 83 82 80 77 73 71 71 71 71 71 73 73 71 70 70 69
269 271 264 254 352 60 90 88 85 76 59 60 69 61 55 62 75 98 122 122 101 96 95 97 95 96 95 94 90 86 86 89 90 88 85 83 78 72 73 72 72 71 74 75 73 72 72 71 66
274 259 243 251 62 70 94 102 99 94 71 59 71 75 69 57 81 106 118 112 104 102 102 105 101 99 96 94 92 90 89 89 92 91 87 85 79 74 73 73 72 72 74 76 73 73 71 68 62
247 260 248 149 80 77 82 88 86 82 71 67 72 86 85 79 90 101 100 100 104 107 109 113 111 107 102 101 98 96 95 93 90 90 88 88 83 80 77 77 76 74 74 75 76 75 71 66 59
270 257 259 121 99 86 84 85 87 82 78 75 81 93 93 101 94 93 96 96 102 108 110 116 120 120 114 109 103 99 101 100 97 97 96 98 96 90 85 82 80 78 77 77 77 77 74 68 57
284 289 268 128 113 104 94 74 74 77 71 65 72 93 112 109 105 105 101 96 98 106 118 127 135 133 126 118 114 112 113 112 109 110 113 115 114 106 99 93 88 82 80 78 79 81 75 69 56
293 293 268 109 115 112 102 95 75 75 78 68 64 89 118 124 126 120 114 110 107 109 114 127 139 140 139 135 132 128 129 130 131 134 135 138 136 130 120 106 100 93 87 85 87 86 81 72 50
264 267 295 78 105 114 123 113 98 92 91 80 75 87 113 128 137 137 131 120 109 106 99 107 124 130 135 137 141 148 148 152 155 158 167 167 164 145 130 115 115 107 102 99 100 101 102 92 50
230 321 31 64 79 105 121 115 117 125 111 107 103 106 122 138 145 145 141 135 128 126 125 120 115 121 130 130 142 160 157 165 179 169 164 180 137 114 116 124 129 133 135 138 166 192 211 211 154
189 57 57 72 80 86 117 127 123 96 100 109 121 131 140 146 148 145 143 134 133 127 126 125 125 131 130 124 136 133 136 158 160 137 141 129 109 121 134 142 147 163 166 170 160 190 135 84 68
115 48 59 72 75 95 134 110 90 82 84 94 114 132 146 153 151 149 139 124 126 127 135 117 114 131 130 128 124 136 140 130 115 99 114 111 101 100 117 128 144 150 128 95 97 75 58 59 58
165 128 113 109 136 219 108 123 98 95 101 113 130 142 152 159 154 148 127 130 132 130 131 123 115 106 96 103 131 133 125 126 123 120 115 116 118 115 113 110 112 101 104 100 69 64 59 54 45
90 141 158 181 179 180 194 186 171 151 135 141 147 154 162 156 151 138 128 135 133 138 140 127 131 112 114 136 152 134 118 116 107 107 127 129 127 120 110 106 92 92 87 79 83 81 73 63 57
214 207 197 198 200 180 223 227 199 159 150 154 161 167 163 157 159 153 138 138 130 128 118 115 128 128 121 106 113 107 108 102 103 92 67 86 109 113 103 97 96 98 97 83 75 72 70 66 67
225 216 208 184 189 177 221 241 140 140 155 164 168 157 153 156 173 160 142 136 131 124 116 116 112 103 89 80 80 81 85 85 77 68 53 44 53 81 99 98 99 90 92 91 85 71 64 56 46
224 227 213 173 177 189 214 235 150 147 173 177 176 170 169 162 172 144 127 123 117 116 118 121 105 103 93 82 87 80 80 72 65 62 55 40 43 57 81 98 96 90 86 83 85 74 78 72 63
277 279 264 188 169 208 220 206 169 162 172 195 187 182 185 169 167 143 128 118 117 122 121 122 115 114 104 89 81 78 65 62 68 78 76 64 54 71 91 105 96 88 85 79 77 74 74 80 72
306 302 297 276 146 235 242 212 171 159 172 194 194 185 188 164 154 135 132 131 133 129 123 122 128 131 116 112 108 103 94 82 64 73 78 79 85 110 103 97 97 100 99 109 102 89 78 77 80
274 267 281 305 162 259 241 226 187 165 175 189 185 182 168 149 145 133 138 136 133 127 124 126 139 138 123 122 120 123 114 110 108 74 68 38 50 91 117 118 111 109 112 111 105 100 86 100 83
278 291 307 317 292 246 232 211 173 155 153 151 161 167 147 147 142 140 138 127 132 137 140 132 143 138 131 131 114 111 100 81 84 79 71 19 85 88 99 116 116 132 138 144 143 131 135 185 309
295 330 305 283 275 261 235 229 168 165 157 160 154 142 134 135 141 139 135 133 133 131 135 129 129 120 116 118 121 135 142 139 141 132 126 159 92 101 118 115 119 140 144 147 170 155 154 151 230
302 308 280 270 270 269 251 245 161 154 156 156 151 149 140 140 133 139 140 141 141 129 122 122 121 116 123 123 115 136 124 134 132 124 138 104 86 96 106 119 128 146 140 143 138 122 128 169 183
283 277 262 244 253 252 235 238 155 152 131 125 138 149 139 135 135 138 137 136 130 122 121 123 126 112 119 130 142 149 124 132 123 120 143 149 148 140 125 120 129 140 148 151 157 148 152 185 36
257 282 283 228 219 240 215 222 113 109 109 119 125 139 136 131 128 131 129 127 130 128 130 134 129 131 149 164 171 160 152 157 165 163 180 171 155 160 158 149 142 141 148 151 149 145 173 164 144
269 265 288 302 292 292 226 170 109 109 108 108 112 121 132 129 116 117 130 137 137 140 147 155 158 161 167 173 180 160 158 163 177 177 175 161 168 179 167 140 140 143 135 137 139 147 181 157 165
277 271 281 293 290 285 223 114 128 121 115 113 109 110 121 122 119 119 135 151 145 148 157 166 174 182 179 187 170 154 160 159 174 176 169 155 180 170 145 149 142 142 137 131 116 149 178 131 121
260 290 292 288 303 293 281 190 158 144 136 126 124 120 108 113 112 113 115 143 148 150 158 167 173 187 176 169 166 158 160 162 159 171 155 147 166 159 161 161 137 138 141 137 123 180 203 152 143
240 252 271 281 275 290 302 10 77 125 124 124 119 126 120 110 116 112 112 138 142 150 153 157 166 174 172 161 162 152 155 153 152 173 161 163 157 164 173 161 154 159 162 165 173 203 213 186 183
269 278 277 276 286 287 294 354 88 94 87 88 77 73 94 96 114 128 129 150 159 167 167 168 165 166 166 166 164 161 167 170 180 164 156 155 150 170 182 170 159 166 172 177 183 207 206 192 202
Height
1501 1502 1503 1505 1505 1507 1508 1504 1500 1500 1500 1502 1502 1502 1507 1511 1516 1527 1526 1525 1525 1524 1523 1523 1523 1524 1524 1525 1525 1526 1526 1527 1527 1528 1528 1529 1529 1529 1530 1530 1530 1530 1530 1530 1530 1530 1530 1530 1530
1501 1503 1505 1505 1507 1514 1513 1504 1503 1503 1503 1504 1504 1505 1509 1514 1519 1523 1524 1525 1525 1525 1524 1524 1524 1525 1525 1525 1526 1527 1527 1528 1528 1529 1529 1530 1530 1531 1531 1531 1531 1531 1532 1532 1532 1532 1532 1532 1532
1502 1504 1505 1503 1505 1511 1512 1504 1504 1504 1505 1504 1506 1509 1513 1519 1521 1523 1525 1526 1526 1525 1525 1525 1525 1526 1526 1526 1527 1528 1528 1529 1529 1530 1530 1531 1531 1532 1532 1532 1533 1533 1533 1533 1533 1533 1533 1533 1533
1504 1505 1504 1504 1507 1503 1502 1503 1504 1505 1506 1506 1507 1512 1518 1522 1523 1525 1526 1527 1527 1526 1526 1526 1526 1527 1527 1528 1528 1529 1529 1530 1531 1531 1532 1532 1533 1533 1534 1534 1534 1534 1534 1534 1535 1534 1535 1535 1535
1506 1505 1505 1507 1505 1501 1501 1503 1504 1505 1506 1508 1510 1515 1521 1524 1524 1526 1527 1528 1528 1527 1527 1527 1528 1528 1528 1529 1529 1530 1530 1531 1532 1532 1533 1534 1534 1535 1535 1535 1535 1535 1536 1536 1536 1536 1536 1536 1536
1506 1503 1509 1512 1507 1503 1503 1505 1506 1507 1508 1510 1512 1516 1522 1525 1525 1526 1527 1528 1529 1529 1529 1529 1529 1529 1530 1530 1531 1531 1532 1532 1533 1534 1534 1535 1535 1536 1536 1536 1536 1537 1537 1537 1537 1537 1537 1537 1538
1507 1505 1508 1507 1508 1507 1505 1506 1507 1508 1510 1512 1513 1517 1523 1525 1526 1527 1528 1529 1530 1530 1530 1530 1530 1531 1531 1532 1532 1532 1533 1534 1534 1535 1536 1536 1537 1537 1537 1537 1538 1538 1538 1538 1538 1539 1539 1539 1539
1506 1506 1506 1506 1509 1509 1506 1507 1509 1510 1512 1514 1515 1518 1522 1525 1526 1527 1529 1530 1530 1531 1531 1531 1531 1532 1532 1533 1533 1534 1534 1535 1536 1536 1537 1538 1538 1538 1538 1539 1539 1539 1539 1540 1540 1540 1540 1540 1540
1506 1509 1510 1507 1508 1507 1507 1508 1510 1512 1513 1515 1517 1519 1522 1525 1526 1528 1529 1530 1531 1532 1532 1533 1533 1533 1534 1534 1534 1535 1536 1536 1537 1538 1538 1539 1539 1539 1540 1540 1541 1541 1541 1541 1541 1541 1541 1541 1542
1505 1510 1507 1503 1503 1506 1507 1508 1510 1511 1513 1516 1518 1521 1523 1525 1527 1528 1529 1530 1531 1532 1533 1533 1534 1534 1535 1536 1536 1536 1537 1537 1538 1539 1540 1540 1541 1541 1541 1541 1542 1542 1542 1542 1542 1543 1543 1543 1543
1504 1506 1504 1504 1505 1507 1508 1509 1510 1512 1514 1516 1518 1521 1523 1525 1527 1528 1529 1530 1531 1532 1533 1534 1534 1535 1535 1536 1537 1537 1538 1539 1539 1540 1541 1541 1542 1542 1542 1542 1542 1543 1543 1543 1544 1544 1544 1544 1544
1504 1504 1505 1506 1508 1509 1509 1510 1511 1513 1516 1517 1518 1521 1523 1525 1526 1528 1529 1530 1531 1532 1533 1534 1534 1535 1536 1536 1537 1537 1538 1539 1540 1540 1541 1542 1542 1543 1543 1543 1543 1544 1544 1544 1544 1544 1545 1545 1545
1505 1506 1507 1508 1509 1510 1510 1511 1513 1514 1516 1517 1519 1521 1523 1525 1526 1528 1529 1530 1531 1532 1533 1533 1534 1535 1536 1536 1537 1538 1538 1539 1540 1541 1541 1542 1542 1543 1543 1544 1544 1544 1545 1545 1545 1545 1546 1546 1546
1505 1506 1507 1508 1509 1510 1511 1511 1513 1514 1516 1518 1519 1521 1523 1524 1526 1527 1528 1530 1531 1531 1532 1533 1534 1535 1535 1536 1537 1538 1539 1540 1540 1541 1542 1542 1543 1543 1543 1544 1544 1545 1545 1545 1545 1546 1546 1546 1546
1506 1507 1507 1507 1508 1509 1511 1512 1511 1513 1515 1517 1519 1520 1522 1524 1525 1527 1528 1529 1530 1531 1532 1533 1534 1534 1535 1536 1537 1538 1539 1540 1540 1541 1542 1542 1543 1543 1543 1544 1544 1544 1545 1545 1546 1546 1547 1547 1547
1504 1506 1511 1506 1506 1508 1513 1518 1510 1512 1514 1516 1518 1519 1521 1523 1525 1526 1527 1528 1529 1530 1531 1532 1533 1534 1535 1536 1537 1537 1538 1539 1540 1541 1541 1542 1543 1543 1543 1543 1544 1544 1545 1545 1546 1547 1547 1547 1547
1505 1510 1510 1506 1503 1505 1510 1514 1511 1511 1513 1515 1517 1518 1520 1522 1524 1525 1526 1528 1529 1530 1530 1531 1532 1533 1534 1535 1536 1537 1538 1539 1539 1540 1541 1541 1542 1542 1543 1543 1544 1544 1545 1546 1546 1547 1547 1547 1548
1510 1507 1507 1506 1503 1504 1508 1510 1509 1510 1512 1514 1516 1517 1519 1520 1522 1524 1526 1527 1528 1529 1530 1530 1531 1532 1533 1534 1535 1536 1537 1538 1539 1539 1540 1541 1541 1542 1542 1543 1544 1544 1545 1546 1546 1547 1548 1548 1548
1503 1506 1508 1503 1500 1504 1506 1507 1507 1508 1511 1513 1515 1516 1518 1519 1521 1523 1524 1526 1527 1528 1529 1530 1530 1531 1532 1533 1534 1535 1536 1537 1538 1539 1540 1540 1541 1541 1542 1542 1543 1544 1545 1546 1546 1547 1548 1548 1548
1502 1506 1506 1502 1499 1502 1505 1506 1504 1506 1508 1511 1513 1515 1516 1518 1520 1522 1523 1525 1526 1527 1528 1529 1530 1530 1531 1532 1533 1534 1536 1536 1537 1538 1539 1539 1540 1541 1541 1541 1543 1543 1544 1545 1546 1547 1547 1548 1549
1502 1505 1506 1506 1502 1500 1504 1508 1505 1504 1506 1509 1511 1513 1515 1517 1519 1521 1522 1524 1525 1526 1527 1528 1529 1530 1531 1532 1532 1534 1535 1536 1537 1537 1538 1539 1539 1540 1540 1541 1542 1543 1544 1545 1546 1546 1547 1548 1549
1507 1500 1502 1504 1509 1509 1504 1518 1507 1503 1505 1507 1510 1512 1514 1516 1518 1519 1521 1522 1523 1525 1526 1527 1528 1529 1530 1531 1532 1533 1534 1535 1536 1537 1537 1538 1539 1539 1540 1541 1541 1542 1543 1544 1545 1546 1547 1548 1548
1503 1500 1501 1502 1506 1510 1503 1510 1509 1501 1506 1506 1508 1511 1513 1515 1516 1518 1520 1521 1522 1524 1525 1526 1527 1528 1529 1530 1531 1532 1533 1534 1535 1536 1536 1537 1538 1539 1540 1540 1541 1542 1543 1543 1544 1545 1546 1547 1548
1500 1500 1498 1499 1506 1517 1502 1507 1512 1503 1503 1505 1507 1509 1511 1514 1515 1517 1519 1520 1521 1522 1524 1525 1526 1527 1528 1529 1530 1531 1532 1533 1534 1535 1536 1536 1537 1538 1539 1539 1540 1541 1542 1542 1543 1544 1545 1546 1547
1501 1509 1517 1518 1520 1513 1494 1501 1508 1499 1499 1502 1506 1508 1510 1512 1514 1516 1517 1518 1520 1521 1522 1524 1525 1526 1527 1528 1529 1530 1531 1532 1533 1534 1535 1535 1536 1536 1537 1538 1539 1540 1540 1541 1542 1543 1544 1545 1546
1502 1507 1522 1530 1523 1508 1496 1503 1504 1497 1499 1502 1505 1507 1509 1512 1513 1515 1516 1517 1518 1520 1521 1523 1524 1525 1526 1527 1528 1529 1530 1531 1532 1532 1533 1534 1535 1535 1536 1536 1537 1538 1539 1540 1541 1542 1543 1543 1544
1505 1505 1502 1512 1510 1512 1502 1502 1501 1497 1500 1503 1505 1507 1509 1511 1513 1514 1516 1517 1517 1518 1520 1521 1522 1524 1525 1526 1527 1527 1528 1529 1530 1531 1532 1533 1533 1534 1534 1535 1536 1536 1537 1538 1539 1540 1541 1542 1542
1502 1503 1506 1513 1523 1523 1509 1505 1507 1502 1502 1503 1505 1507 1509 1511 1512 1513 1515 1516 1517 1517 1518 1520 1521 1522 1523 1524 1525 1526 1527 1528 1529 1530 1530 1531 1531 1532 1533 1533 1534 1535 1535 1536 1537 1539 1539 1540 1541
1502 1504 1505 1509 1511 1522 1523 1515 1495 1498 1499 1502 1505 1507 1508 1510 1511 1513 1514 1515 1515 1516 1517 1518 1519 1520 1521 1522 1523 1524 1525 1526 1527 1528 1528 1529 1529 1530 1530 1531 1532 1532 1533 1534 1535 1536 1537 1538 1539
1499 1501 1505 1517 1515 1511 1517 1516 1494 1496 1500 1503 1505 1507 1509 1510 1511 1511 1512 1514 1514 1515 1516 1516 1517 1518 1519 1520 1521 1522 1523 1524 1525 1526 1526 1527 1527 1528 1529 1529 1530 1530 1531 1532 1534 1535 1536 1536 1537